THOR ABLESTAR DEB, 3164

Orbit data source: Space-Track

THOR ABLESTAR DEB, 3164 is space debris in LEO originally from a launch on Thu, 29 Jun 1961 UTC launched from the Air Force Eastern Test Range (AFETR). Debris objects in space refer to the collection of defunct objects orbiting the Earth. Examples of debris include non-operational satellites, rocket bodies, and fragments generated from explosions, collisions, or faulty payload assembly.

Loading next visibility...
Identifier
3164, 1961-015HZ
Orbit
LEO
Country
Flag of USUS
Related business
Manufacturer
Unknown
Mission
Spacecraft
Bus & Motor
Unknown
Mass
Unknown
Launch date (UTC)
1961-06-29 (64 years ago)
Launch vehicle
Unknown
Launch site
Air Force Eastern Test Range (AFETR)
Object type
Payload
Rocket body
Debris
Shape & HBR
Unknown
Radar Cross Section
Small (<0.1 m²)

Expand to show TLE details & history
Last TLE update: 11 hours ago

TLE from 11 hours ago
0 THOR ABLESTAR DEB
1 03164U 61015HZ  25260.75845402  .00000773  00000-0  53389-3 0  9995
2 03164  66.7469  51.3343 0055175 242.0428 117.5066 14.03795668 49567
Epoch: 2025-09-17T18:12Z
TLE epoch observation values (Epoch: 2025-09-17T18:12:10.427Z)
Latitude
-0.00002°
Longitude
141.36104°
Altitude
901.438 km
Speed
7.392 km/s
True Right ascension
03h 25m 20s
True Declination
0° 00' 00"
Sunlit
Object was in full shadow at epoch
Visualization orbit readout
Latitude
Unknown
Longitude
Unknown
Altitude
Unknown
Speed
Unknown
Apparent Right ascension
Unknown
Apparent Declination
Unknown
Sunlit
N/A
Visualization observer readout
Local Sidereal Time
21:59:24
Azimuth
Unknown
Elevation
Unknown
Doppler factor
Unknown
Orbital elements
Apogee altitude
919.112 km
Perigee altitude
839.029 km
Semi-major axis
7,257.208 km
Eccentricity
0.00552
Inclination
66.7469°
RAAN
51.3343°
Arg. of periapsis
242.0428°
True anomaly
118.0656°
Mean anomaly
117.5066°
Eccentric anomaly
117.78628°
Mean motion
3.51066 °/min
Orbital period
102.54 mins
BSTAR
0.00053389
Loading maneuver chart data...
Computing Atmospheric mass density...

Documentation

Showing up to 5 results
|